DELTA 1 DEB, 19590

Orbit data source: Space-Track

DELTA 1 DEB, 19590 is space debris in SSO originally from a launch on Tue, 06 Nov 1973 UTC launched from the Air Force Western Test Range (AFWTR). Debris objects in space refer to the collection of defunct objects orbiting the Earth. Examples of debris include non-operational satellites, rocket bodies, and fragments generated from explosions, collisions, or faulty payload assembly.

Loading next visibility...
Identifier
19590, 1973-086HG
Orbit
SSO
Country
Flag of USUS
Related business
Manufacturer
Unknown
Mission
Spacecraft
Bus & Motor
Unknown
Mass
Unknown
Launch date (UTC)
1973-11-06 (52 years ago)
Launch vehicle
Unknown
Launch site
Air Force Western Test Range (AFWTR)
Object type
Payload
Rocket body
Debris
Shape & HBR
Unknown shape, 0.1 m
Radar Cross Section
Small (<0.1 m²)

Expand to show TLE details & history
Last TLE update: 1 day ago

TLE from 1 day ago
0 DELTA 1 DEB
1 19590U 73086HG  25296.33507895 -.00000038  00000-0  64126-4 0  9997
2 19590 102.4764 311.6053 0045993 119.0587 261.5382 12.31847959616997
Epoch: 2025-10-23T08:02Z
TLE epoch observation values (Epoch: 2025-10-23T08:02:30.821Z)
Latitude
19.58574°
Longitude
154.48773°
Altitude
1,548.978 km
Speed
7.091 km/s
True Right ascension
20h 28m 26s
True Declination
19° 29' 18"
Sunlit
Object was in daylight at epoch
Visualization orbit readout
Latitude
Unknown
Longitude
Unknown
Altitude
Unknown
Speed
Unknown
Apparent Right ascension
Unknown
Apparent Declination
Unknown
Sunlit
N/A
Visualization observer readout
Local Sidereal Time
07:29:32
Azimuth
Unknown
Elevation
Unknown
Doppler factor
Unknown
Orbital elements
Apogee altitude
1,575.378 km
Perigee altitude
1,502.552 km
Semi-major axis
7,917.102 km
Eccentricity
0.0046
Inclination
102.4764°
RAAN
311.6053°
Arg. of periapsis
119.0587°
True anomaly
261.01734°
Mean anomaly
261.5382°
Eccentric anomaly
261.27773°
Mean motion
3.08101 °/min
Orbital period
116.84 mins
BSTAR
0.000064126
Loading maneuver chart data...
Computing Atmospheric mass density...
Loading historical data...
Loading historical data...
Loading historical data...
Loading historical data...
Loading historical data...
Loading historical data...
Loading historical data...

Documentation

Showing up to 5 results
|